Simultaneous Nadir Overpasses (SNOs) Predictions

Prediction of SNOs between GOES-16 and METOP-B Satellite Orbit:

Table of predicted SNOs for the next 14.0 days since TLE Epoch: 2/17/2017
Index Date Time (GOES-16) GOES-16 Lat,Lon METOP-B Lat,Lon Distance(km) Time Diff (sec)
1 02/18/2017 03:40:06 -0.00, -89.46 -0.48, -91.70 254.42 80
2 02/19/2017 03:16:46 -0.00, -89.46 0.62, -86.70 314.53 80
3 02/20/2017 15:35:39 0.00, -89.50 0.38, -91.27 201.02 80
4 02/21/2017 15:17:39 -0.00, -89.50 -0.72, -86.27 368.12 80
5 02/23/2017 03:36:40 0.00, -89.46 -0.30, -90.87 159.93 80
6 02/24/2017 03:13:20 0.00, -89.47 0.80, -85.87 409.21 80
7 02/25/2017 15:32:12 -0.00, -89.51 0.20, -90.44 105.90 80
8 02/26/2017 15:14:13 -0.00, -89.51 -0.91, -85.45 463.53 80
9 02/28/2017 03:33:13 0.00, -89.48 -0.12, -90.04 63.91 80
10 03/02/2017 15:28:46 -0.00, -89.53 0.01, -89.61 9.23 80




NCC Satellite Simultaneous Nadir Overpasses (SNOs) Prediction Service
